Weather History for Hazen, ND

Change the Weather History Date:

Friday, January 3, 2014

  Actual Average (KN60) Record (KN60)
Temperature  
Mean Temperature 27 °F -  
Max Temperature 39 °F 17 °F - (-1)
Min Temperature 15 °F 1 °F - (-1)
Degree Days  
Heating Degree Days 38    
Moisture  
Dew Point 22 °F    
Average Humidity 77    
Maximum Humidity 87    
Minimum Humidity 65    
Precipitation  
Precipitation 0.09 in - - ()
Sea Level Pressure  
Sea Level Pressure 29.45 in    
Wind  
Wind Speed 17 mph (WSW)    
Max Wind Speed 26 mph    
Max Gust Speed 34 mph    
Visibility 9 miles    
Events Rain , Snow    
Averages and records for this station are not official NWS values.
T = Trace of Precipitation, MM = Missing Value Source: NWS Daily Summary

Daily Weather History Graph

Daily Weather History Graph

Search for Another Location

Airport:

Trip Planner

Search our weather history database for the weather conditions in past years. The results will help you decide how hot, cold, wet, or windy it might be!

Date:

Astronomy

Jan. 03, 2014 Rise Set
Actual Time 8:33 AM CST 5:08 PM CST
Civil Twilight 7:57 AM CST 5:44 PM CST
Nautical Twilight 7:19 AM CST 6:23 PM CST
Astronomical Twilight 6:41 AM CST 7:00 PM CST
Moon 9:48 AM CST (1/3) 8:34 PM CST (1/3)
Length of Visible Light 9h 46m
Length of Day
8h 35m
Waxing Crescent, 8% of the Moon is Illuminated
Jan 3
Waxing Crescent
Jan 7
First Quarter
Jan 15
Full
Jan 23
Last Quarter
Jan 30
New

Hourly Weather History & Observations

Time (CST) Temp. Windchill Dew Point Humidity Pressure Visibility Wind Dir Wind Speed Gust Speed Precip Events Conditions
12:15 AM 15.8 °F -2.7 °F 10.4 °F 79% 29.71 in 6.0 mi South 24.2 mph - N/A Snow Light Snow
12:35 AM 15.8 °F -2.7 °F 10.4 °F 79% 29.69 in 10.0 mi South 24.2 mph - N/A   Clear
12:55 AM 17.6 °F 0.9 °F 10.4 °F 73% 29.68 in 10.0 mi SSW 20.7 mph - N/A   Clear
1:15 AM 17.6 °F 1.7 °F 12.2 °F 79% 29.66 in 10.0 mi South 18.4 mph 27.6 mph N/A   Clear
1:35 AM 17.6 °F 3.2 °F 12.2 °F 79% 29.65 in 10.0 mi South 15.0 mph - N/A   Clear
1:55 AM 17.6 °F 3.7 °F 12.2 °F 79% 29.63 in 10.0 mi SSW 13.8 mph 23.0 mph N/A   Mostly Cloudy
2:15 AM 19.4 °F 4.1 °F 14.0 °F 80% 29.62 in 10.0 mi South 18.4 mph - N/A   Mostly Cloudy
2:35 AM 21.2 °F 6.0 °F 15.8 °F 80% 29.60 in 10.0 mi SSW 19.6 mph 24.2 mph N/A   Overcast
2:55 AM 21.2 °F 8.3 °F 14.0 °F 74% 29.59 in 10.0 mi South 13.8 mph 19.6 mph N/A   Overcast
3:15 AM 19.4 °F 6.0 °F 14.0 °F 80% 29.58 in 10.0 mi South 13.8 mph - N/A   Overcast
3:35 AM 21.2 °F 8.3 °F 14.0 °F 74% 29.56 in 10.0 mi SSW 13.8 mph - N/A   Scattered Clouds
3:55 AM 21.2 °F 6.8 °F 15.8 °F 80% 29.55 in 10.0 mi South 17.3 mph - N/A   Clear
4:15 AM 23.0 °F 8.0 °F 15.8 °F 74% 29.52 in 10.0 mi SSW 20.7 mph - N/A   Mostly Cloudy
4:35 AM 24.8 °F 11.5 °F 15.8 °F 69% 29.52 in 10.0 mi SSW 17.3 mph - N/A   Overcast
4:55 AM 24.8 °F 12.9 °F 17.6 °F 74% 29.51 in 10.0 mi South 13.8 mph - N/A   Overcast
5:15 AM 26.6 °F 14.3 °F 19.4 °F 74% 29.49 in 10.0 mi SSW 16.1 mph - N/A   Overcast
5:35 AM 26.6 °F 13.8 °F 19.4 °F 74% 29.47 in 10.0 mi SSW 17.3 mph - N/A   Overcast
5:55 AM 28.4 °F 17.0 °F 21.2 °F 74% 29.44 in 10.0 mi SSW 15.0 mph - N/A   Overcast
6:15 AM 30.2 °F 19.3 °F 23.0 °F 75% 29.43 in 10.0 mi SSW 15.0 mph - N/A   Overcast
6:35 AM 30.2 °F 20.8 °F 23.0 °F 75% 29.42 in 10.0 mi SSW 11.5 mph - N/A   Overcast
6:55 AM 32.0 °F 22.1 °F 23.0 °F 69% 29.41 in 10.0 mi SSW 13.8 mph - N/A   Overcast
7:15 AM 32.0 °F 23.0 °F 24.8 °F 75% 29.40 in 10.0 mi SSW 11.5 mph 17.3 mph N/A   Overcast
7:35 AM 32.0 °F 23.6 °F 24.8 °F 75% 29.39 in 10.0 mi SSW 10.4 mph - N/A   Overcast
7:55 AM 35.6 °F 27.1 °F 26.6 °F 70% 29.38 in 10.0 mi SW 12.7 mph - N/A   Overcast
8:15 AM 37.4 °F 30.3 °F 26.6 °F 65% 29.37 in 10.0 mi SW 10.4 mph - N/A   Overcast
8:35 AM 37.4 °F 30.3 °F 28.4 °F 70% 29.36 in 10.0 mi WSW 10.4 mph - N/A   Overcast
8:55 AM 37.4 °F 27.5 °F 28.4 °F 70% 29.35 in 10.0 mi WSW 18.4 mph - N/A   Overcast
9:15 AM 37.4 °F 28.2 °F 28.4 °F 70% 29.35 in 10.0 mi SW 16.1 mph 19.6 mph N/A   Overcast
9:35 AM 37.4 °F 29.3 °F 28.4 °F 70% 29.34 in 10.0 mi SW 12.7 mph - N/A   Overcast
9:55 AM 37.4 °F 29.3 °F 28.4 °F 70% 29.33 in 10.0 mi SW 12.7 mph 16.1 mph N/A Rain Light Rain
10:15 AM 37.4 °F 28.5 °F 28.4 °F 70% 29.33 in 10.0 mi SW 15.0 mph - N/A   Overcast
10:35 AM 37.4 °F 29.3 °F 28.4 °F 70% 29.33 in 10.0 mi WSW 12.7 mph - N/A   Overcast
10:55 AM 37.4 °F 29.8 °F 30.2 °F 75% 29.32 in 10.0 mi WSW 11.5 mph - N/A   Overcast
11:15 AM 37.4 °F 30.3 °F 30.2 °F 75% 29.31 in 10.0 mi SW 10.4 mph - N/A   Overcast
11:35 AM 37.4 °F 29.8 °F 30.2 °F 75% 29.29 in 10.0 mi SW 11.5 mph - N/A   Overcast
11:55 AM 37.4 °F 29.8 °F 30.2 °F 75% 29.27 in 10.0 mi SW 11.5 mph - N/A   Overcast
12:15 PM 39.2 °F 33.0 °F 32.0 °F 75% 29.25 in 10.0 mi SW 9.2 mph - N/A   Mostly Cloudy
12:35 PM 37.4 °F 32.8 °F 32.0 °F 81% 29.25 in 10.0 mi West 5.8 mph - N/A   Clear
12:55 PM 37.4 °F 30.3 °F 32.0 °F 81% 29.25 in 10.0 mi SW 10.4 mph - N/A   Mostly Cloudy
1:15 PM 37.4 °F 30.8 °F 32.0 °F 81% 29.25 in 9.0 mi WSW 9.2 mph - N/A Rain Light Rain
1:35 PM 37.4 °F 31.4 °F 32.0 °F 81% 29.24 in 9.0 mi SW 8.1 mph - N/A Rain Light Rain
1:55 PM 37.4 °F 28.9 °F 32.0 °F 81% 29.23 in 5.0 mi SW 13.8 mph - N/A Rain Light Rain
2:15 PM 37.4 °F 28.9 °F 32.0 °F 81% 29.22 in 10.0 mi SW 13.8 mph - N/A   Mostly Cloudy
2:35 PM 37.4 °F 30.8 °F 32.0 °F 81% 29.23 in 10.0 mi WSW 9.2 mph - N/A   Overcast
2:55 PM 37.4 °F 29.3 °F 32.0 °F 81% 29.22 in 10.0 mi SW 12.7 mph - N/A   Mostly Cloudy
3:15 PM 39.2 °F 31.6 °F 32.0 °F 75% 29.22 in 10.0 mi SW 12.7 mph - N/A   Partly Cloudy
3:35 PM 39.2 °F 32.0 °F 32.0 °F 75% 29.23 in 10.0 mi WSW 11.5 mph - N/A   Clear
3:55 PM 39.2 °F 31.2 °F 32.0 °F 75% 29.22 in 10.0 mi WSW 13.8 mph - N/A   Mostly Cloudy
4:15 PM 39.2 °F 30.2 °F 32.0 °F 75% 29.23 in 10.0 mi West 17.3 mph - N/A   Mostly Cloudy
4:35 PM 39.2 °F 31.2 °F 32.0 °F 75% 29.24 in 10.0 mi West 13.8 mph - N/A   Overcast
4:55 PM 37.4 °F 28.9 °F 32.0 °F 81% 29.26 in 10.0 mi WNW 13.8 mph 18.4 mph N/A   Overcast
5:15 PM 37.4 °F 26.6 °F 32.0 °F 81% 29.26 in 10.0 mi WNW 21.9 mph 33.4 mph N/A   Overcast
5:35 PM 35.6 °F 23.4 °F 32.0 °F 87% 29.30 in 10.0 mi NW 25.3 mph 34.5 mph N/A   Overcast
5:55 PM 28.4 °F 13.5 °F 24.8 °F 86% 29.36 in 10.0 mi North 26.5 mph 32.2 mph N/A   Overcast
6:15 PM 23.0 °F 8.0 °F 17.6 °F 80% 29.40 in 10.0 mi NNW 20.7 mph 32.2 mph N/A   Overcast
6:35 PM 21.2 °F 6.8 °F 15.8 °F 80% 29.45 in 10.0 mi North 17.3 mph 28.8 mph N/A   Overcast
6:55 PM 19.4 °F 3.6 °F 14.0 °F 80% 29.48 in 10.0 mi North 19.6 mph 27.6 mph N/A Snow Light Snow
7:15 PM 19.4 °F 2.1 °F 14.0 °F 80% 29.51 in 10.0 mi North 24.2 mph 29.9 mph N/A Snow Light Snow
7:35 PM 19.4 °F 2.8 °F 14.0 °F 80% 29.54 in 9.0 mi North 21.9 mph - N/A Snow Light Snow
7:55 PM 17.6 °F 1.7 °F 14.0 °F 86% 29.56 in 3.0 mi NNW 18.4 mph 26.5 mph 0.03 in Snow Light Snow
8:15 PM 17.6 °F 1.3 °F 12.2 °F 79% 29.58 in 8.0 mi NNW 19.6 mph 27.6 mph 0.01 in Snow Light Snow
8:35 PM 17.6 °F 1.3 °F 12.2 °F 79% 29.61 in 3.0 mi NNW 19.6 mph 29.9 mph 0.03 in Snow Light Snow
8:55 PM 17.6 °F 1.7 °F 12.2 °F 79% 29.64 in 5.0 mi North 18.4 mph 25.3 mph 0.05 in Snow Light Snow
9:15 PM 17.6 °F 1.3 °F 10.4 °F 73% 29.67 in 5.0 mi North 19.6 mph 32.2 mph N/A Snow Light Snow
9:35 PM 17.6 °F 1.7 °F 12.2 °F 79% 29.68 in 10.0 mi NNW 18.4 mph 25.3 mph N/A Snow Light Snow
9:55 PM 17.6 °F 1.3 °F 14.0 °F 86% 29.69 in 10.0 mi NNW 19.6 mph 27.6 mph N/A   Overcast
10:15 PM 19.4 °F 2.8 °F 14.0 °F 80% 29.71 in 10.0 mi NNW 21.9 mph 28.8 mph N/A Snow Light Snow
10:35 PM 17.6 °F -0.3 °F 12.2 °F 79% 29.73 in 10.0 mi NNW 24.2 mph 33.4 mph N/A Snow Light Snow
10:55 PM 17.6 °F -0.6 °F 10.4 °F 73% 29.76 in 10.0 mi NNW 25.3 mph 34.5 mph N/A Snow Light Snow
11:15 PM 17.6 °F 3.7 °F 10.4 °F 73% 29.77 in 10.0 mi NNW 13.8 mph 23.0 mph N/A   Mostly Cloudy
11:35 PM 17.6 °F -0.3 °F 12.2 °F 79% 29.78 in 7.0 mi NW 24.2 mph 32.2 mph N/A Snow Light Snow
11:55 PM 15.8 °F -1.9 °F 10.4 °F 79% 29.80 in 10.0 mi NW 21.9 mph 27.6 mph 0.01 in Snow Light Snow